SCOUT B DEB, 2516

Orbit data source: Space-Track

SCOUT B DEB, 2516 is space debris in LEO originally from a launch on Fri, 10 Jun 1966 UTC launched from the Wallops Island (WLPIS). Debris objects in space refer to the collection of defunct objects orbiting the Earth. Examples of debris include non-operational satellites, rocket bodies, and fragments generated from explosions, collisions, or faulty payload assembly.

Loading next visibility...
Identifier
2516, 1966-052D
Orbit
LEO
Country
Flag of USUS
Related business
Manufacturer
Unknown
Mission
Spacecraft
Bus & Motor
Unknown
Mass
Unknown
Launch date (UTC)
1966-06-10 (60 years ago)
Launch vehicle
Unknown
Launch site
Wallops Island (WLPIS)
Object type
Payload
Rocket body
Debris
Shape & HBR
Unknown shape, 0.1 m
Radar Cross Section
Medium (>0.1 m² and <1 m²)

Expand to show TLE details & history
Last TLE update: 1 month ago

TLE from 1 month ago
0 SCOUT B DEB
1 02516U 66052D   26134.37238855  .00000041  00000-0  12370-3 0  9991
2 02516  41.0135 153.8303 2219272 208.8502 136.9286 10.00991403320707
Epoch: 2026-05-14T08:56Z
TLE epoch observation values (Epoch: 2026-05-14T08:56:14.370Z)
Latitude
-0.00003°
Longitude
147.65139°
Altitude
4,355.622 km
Speed
5.519 km/s
True Right ascension
10h 15m 19s
True Declination
0° 00' 00"
Sunlit
Object was in daylight at epoch
Visualization orbit readout
Latitude
Unknown
Longitude
Unknown
Altitude
Unknown
Speed
Unknown
Apparent Right ascension
Unknown
Apparent Declination
Unknown
Sunlit
N/A
Visualization observer readout
Local Sidereal Time
23:04:59
Azimuth
Unknown
Elevation
Unknown
Doppler factor
Unknown
Orbital elements
Apogee altitude
4,737.018 km
Perigee altitude
699.535 km
Semi-major axis
9,096.413 km
Eccentricity
0.22193
Inclination
41.0135°
RAAN
153.8303°
Arg. of periapsis
208.8502°
True anomaly
151.21117°
Mean anomaly
136.9286°
Eccentric anomaly
144.34119°
Mean motion
2.50172 °/min
Orbital period
143.9 mins
BSTAR
0.0001237
Loading maneuver chart data...
Computing Atmospheric mass density...
Loading historical data...
Loading historical data...
Loading historical data...
Loading historical data...
Loading historical data...
Loading historical data...
Loading historical data...
Other satellites on launch #52 in the year 1966 (1966-06-10 UTC)

Documentation

Showing up to 5 results
|